Pittsburgh Allegheny Co., PA

5:40 PM EST on November 19, 2019 (GMT -0500)
Allegheny County

Weather History for KAGC - September, 2019

Change the Weather History Date:

Wednesday, September 18, 2019

  Actual Average Record
Temperature  
Mean Temperature 64 °F -  
Max Temperature 77 °F 76 °F 85 °F (1991)
Min Temperature 54 °F 57 °F 40 °F (1990)
Growing Degree Days 14 (Base 50)    
Moisture  
Dew Point 47 °F    
Average Humidity 55    
Maximum Humidity 83    
Minimum Humidity 33    
Precipitation  
Precipitation 0.00 in - - ()
Sea Level Pressure  
Sea Level Pressure 30.20 in    
Wind  
Wind Speed 6 mph (ENE)    
Max Wind Speed 12 mph    
Max Gust Speed 18 mph    
Visibility 10 miles    
Events      
Averages and records for this station are not official NWS values.
T = Trace of Precipitation, MM = Missing Value Source: NWS Daily Summary

Daily Weather History Graph

Daily Weather History Graph

Search for Another Location

Airport or City:

Astronomy

Sep. 18, 2019 Rise Set
Actual Time 7:03 AM EDT 7:23 PM EDT
Civil Twilight 6:35 AM EDT 7:51 PM EDT
Nautical Twilight 6:03 AM EDT 8:23 PM EDT
Astronomical Twilight 5:31 AM EDT 8:55 PM EDT
Moon 9:56 PM EDT (9/18) 11:05 AM EDT (9/18)
Length of Visible Light 13h 15m
Length of Day
12h 20m
Waning Gibbous, 82% of the Moon is Illuminated
Sep 18
Waning Gibbous
Sep 21
Last Quarter
Sep 28
New
Oct 5
First Quarter
Oct 13
Full

Hourly Weather History & Observations

Time (EDT) Temp. Dew Point Humidity Pressure Visibility Wind Dir Wind Speed Gust Speed Precip Events Conditions
12:53 AM 62.1 °F 48.9 °F 62% 30.15 in 10.0 mi ENE 4.6 mph - N/A   Clear
1:53 AM 60.1 °F 48.9 °F 67% 30.17 in 10.0 mi NE 4.6 mph - N/A   Clear
2:53 AM 59.0 °F 48.9 °F 69% 30.17 in 10.0 mi ENE 5.8 mph - N/A   Clear
3:53 AM 57.9 °F 48.9 °F 72% 30.17 in 10.0 mi ENE 4.6 mph - N/A   Clear
4:53 AM 57.0 °F 48.9 °F 74% 30.18 in 10.0 mi ENE 4.6 mph - N/A   Clear
5:53 AM 55.9 °F 48.9 °F 77% 30.18 in 10.0 mi ENE 5.8 mph - N/A   Clear
6:53 AM 54.0 °F 48.9 °F 83% 30.19 in 10.0 mi ENE 4.6 mph - N/A   Clear
7:53 AM 55.0 °F 50.0 °F 83% 30.22 in 10.0 mi NE 4.6 mph - N/A   Clear
8:53 AM 59.0 °F 51.1 °F 75% 30.22 in 10.0 mi ENE 4.6 mph - N/A   Clear
9:53 AM 63.0 °F 51.1 °F 65% 30.23 in 10.0 mi ENE 6.9 mph - N/A   Clear
10:53 AM 66.9 °F 52.0 °F 59% 30.22 in 10.0 mi Variable 4.6 mph - N/A   Clear
11:53 AM 70.0 °F 51.1 °F 51% 30.22 in 10.0 mi NE 8.1 mph - N/A   Clear
12:53 PM 72.0 °F 48.0 °F 43% 30.22 in 10.0 mi ENE 8.1 mph 18.4 mph N/A   Clear
1:53 PM 73.9 °F 46.9 °F 38% 30.21 in 10.0 mi ENE 8.1 mph - N/A   Clear
2:53 PM 75.9 °F 45.0 °F 33% 30.21 in 10.0 mi SE 9.2 mph - N/A   Clear
3:53 PM 75.9 °F 46.0 °F 35% 30.19 in 10.0 mi East 11.5 mph 16.1 mph N/A   Clear
4:53 PM 75.9 °F 45.0 °F 33% 30.18 in 10.0 mi NE 8.1 mph - N/A   Clear
5:53 PM 73.9 °F 44.1 °F 34% 30.19 in 10.0 mi Variable 5.8 mph - N/A   Clear
6:53 PM 71.1 °F 43.0 °F 36% 30.20 in 10.0 mi ENE 6.9 mph 16.1 mph N/A   Clear
7:53 PM 66.9 °F 44.1 °F 44% 30.21 in 10.0 mi ENE 5.8 mph - N/A   Clear
8:53 PM 64.9 °F 45.0 °F 48% 30.22 in 10.0 mi ENE 8.1 mph - N/A   Clear
9:53 PM 63.0 °F 44.1 °F 50% 30.22 in 10.0 mi East 9.2 mph - N/A   Clear
10:53 PM 62.1 °F 42.1 °F 48% 30.23 in 10.0 mi East 9.2 mph - N/A   Clear
11:53 PM 61.0 °F 41.0 °F 48% 30.22 in 10.0 mi East 5.8 mph - N/A   Clear